Retour au catalogue

STARLINK-5394

ActifCommunicationsVLEO
NORAD 54830·PAYLOAD·🇺🇸 United States

Lancé Dec 28, 2022 depuis Cape Canaveral Space Force Station

Loading…

Prochains Passages (prochaines 24 heures)

TLE

FraisSource: CelesTrak SupGP

Époque: Sep 15, 2026, 01:41 UTC

1 54830C 22177L   26258.07062500 -.00038177  00000+0 -13838-2 0  2582
2 54830  43.0025 146.8904 0001210 281.6784  40.9925 15.27573068    12

Suivez STARLINK-5394 en temps réel avec AllMySat

Download on the App Store